1998-067HW

Last updated on May 19, 2016, 7:36 a.m. UTC

1 41476U 98067HW  16140.16799087  .00031653  00000-0  45992-3 0  9991
2 41476  51.6413 202.7812 0003396  14.1316  95.5806 15.55493885   324

Satellite is not in orbit.